Weather History for KFST - February, 2015

Change the Weather History Date:

Wednesday, February 25, 2015

  Actual Average Record
Temperature  
Mean Temperature 50 °F -  
Max Temperature 66 °F 64 °F 87 °F (2008)
Min Temperature 33 °F 40 °F 19 °F (2003)
Degree Days  
Heating Degree Days 16    
Moisture  
Dew Point 31 °F    
Average Humidity 62    
Maximum Humidity 96    
Minimum Humidity 22    
Precipitation  
Precipitation 0.00 in - - ()
Sea Level Pressure  
Sea Level Pressure 29.89 in    
Wind  
Wind Speed 13 mph (West)    
Max Wind Speed 22 mph    
Max Gust Speed 30 mph    
Visibility 10 miles    
Events      
Averages and records for this station are not official NWS values.
T = Trace of Precipitation, MM = Missing Value Source: NWS Daily Summary

Daily Weather History Graph

Daily Weather History Graph

Search for Another Location

Airport or City:

Trip Planner

Search our weather history database for the weather conditions in past years. The results will help you decide how hot, cold, wet, or windy it might be!

Date:

Astronomy

Feb. 25, 2015 Rise Set
Actual Time 7:22 AM CST 6:47 PM CST
Civil Twilight 6:58 AM CST 7:11 PM CST
Nautical Twilight 6:30 AM CST 7:39 PM CST
Astronomical Twilight 6:02 AM CST 8:07 PM CST
Moon 12:12 PM CST 1:12 AM CST
Length of Visible Light 12h 13m
Length of Day
11h 24m
Waxing Crescent, 50% of the Moon is Illuminated
Feb 25
Waxing Crescent
Mar 5
Full
Mar 13
Last Quarter
Mar 20
New
Mar 27
First Quarter

Hourly Weather History & Observations

Time (CST) Temp. Windchill Dew Point Humidity Pressure Visibility Wind Dir Wind Speed Gust Speed Precip Events Conditions
12:53 AM 33.1 °F 23.4 °F 30.9 °F 92% 29.99 in 10.0 mi WSW 13.8 mph - N/A   Mostly Cloudy
1:53 AM 34.0 °F 26.0 °F 32.0 °F 92% 29.94 in 10.0 mi SW 10.4 mph - N/A   Overcast
2:53 AM 35.1 °F 26.4 °F 32.0 °F 89% 29.96 in 10.0 mi West 12.7 mph - N/A   Overcast
3:53 AM 36.0 °F 29.0 °F 33.1 °F 89% 29.97 in 10.0 mi WNW 9.2 mph - N/A   Overcast
4:40 AM 37.0 °F 28.9 °F 34.0 °F 89% 29.99 in 10.0 mi NW 12.7 mph - N/A   Overcast
4:53 AM 36.0 °F 27.1 °F 33.1 °F 89% 29.98 in 10.0 mi NNW 13.8 mph - N/A   Overcast
5:25 AM 35.1 °F 27.9 °F 33.1 °F 92% 30.00 in 10.0 mi NW 9.2 mph - N/A   Overcast
5:53 AM 35.1 °F 26.9 °F 33.1 °F 92% 29.99 in 10.0 mi WNW 11.5 mph - N/A   Overcast
6:53 AM 34.0 °F 26.6 °F 33.1 °F 96% 30.00 in 10.0 mi West 9.2 mph - N/A   Mostly Cloudy
7:01 AM 33.1 °F 26.1 °F 32.0 °F 96% 30.00 in 10.0 mi WNW 8.1 mph - N/A   Scattered Clouds
7:53 AM 33.1 °F 26.1 °F 32.0 °F 96% 30.00 in 7.0 mi WSW 8.1 mph - N/A   Clear
8:53 AM 39.0 °F 31.8 °F 35.1 °F 86% 29.98 in 10.0 mi WSW 11.5 mph - N/A   Clear
9:53 AM 46.0 °F 39.3 °F 35.1 °F 66% 29.96 in 10.0 mi West 16.1 mph 19.6 mph N/A   Clear
10:53 AM 51.1 °F - 34.0 °F 52% 29.93 in 10.0 mi West 16.1 mph 21.9 mph N/A   Clear
11:53 AM 55.9 °F - 32.0 °F 40% 29.90 in 10.0 mi West 21.9 mph - N/A   Clear
12:53 PM 60.1 °F - 30.0 °F 32% 29.85 in 10.0 mi West 19.6 mph 29.9 mph N/A   Clear
1:53 PM 63.0 °F - 28.9 °F 28% 29.80 in 10.0 mi WNW 13.8 mph 28.8 mph N/A   Clear
2:53 PM 64.9 °F - 27.0 °F 24% 29.76 in 10.0 mi West 18.4 mph 25.3 mph N/A   Clear
3:53 PM 66.0 °F - 26.1 °F 22% 29.74 in 10.0 mi West 21.9 mph 28.8 mph N/A   Clear
4:53 PM 66.0 °F - 27.0 °F 23% 29.73 in 10.0 mi NW 19.6 mph - N/A   Clear
5:53 PM 64.0 °F - 26.1 °F 24% 29.74 in 10.0 mi NW 16.1 mph 26.5 mph N/A   Clear
6:53 PM 59.0 °F - 28.0 °F 31% 29.76 in 10.0 mi WNW 10.4 mph - N/A   Clear
7:53 PM 55.9 °F - 28.9 °F 36% 29.78 in 10.0 mi WNW 10.4 mph - N/A   Clear
8:53 PM 51.1 °F - 30.9 °F 46% 29.80 in 10.0 mi West 9.2 mph - N/A   Clear
9:53 PM 51.1 °F - 30.0 °F 44% 29.80 in 10.0 mi West 10.4 mph - N/A   Clear
10:53 PM 46.9 °F - 30.9 °F 54% 29.80 in 10.0 mi SW 11.5 mph - N/A   Clear
11:53 PM 48.0 °F - 30.0 °F 50% 29.79 in 10.0 mi SSW 11.5 mph - N/A   Clear